{"data":{"norad_id":30794,"intl_designator":"2007-007B","name":"SKYNET 5A","alt_names":[],"object_type":"PAYLOAD","status":"ACTIVE","operator":null,"country":"UK","launch_date":"2007-03-11","launch_site_code":"FRGUI","launch_vehicle":null,"mission":null,"orbit_class":"UNKNOWN","rcs_meters":41.806,"size_class":null,"mass_kg":null,"dimensions":null,"purposes":["comms"],"wikipedia_slug":null,"has_3d_model":false,"image_url":null,"decayed_at":null,"tle_current":{"epoch":"2026-05-24T23:22:21.650880Z","epoch_age_seconds":88057,"freshness":"FRESH","line1":"1 30794U 07007B   26144.97386170 -.00000274  00000+0  00000+0 0  9997","line2":"2 30794   5.2430  74.0165 0003985 357.2099 257.1644  1.00272869 70463","mean_motion":1.00272869,"eccentricity":0.0003985,"inclination_deg":5.243,"raan_deg":74.0165,"arg_perigee_deg":357.2099,"mean_anomaly_deg":257.1644,"bstar":0,"rev_number":7046,"period_min":1436.0813791017,"perigee_km":35769.488554788,"apogee_km":35803.093603968,"semimajor_km":42164.428079378,"source":"CELESTRAK","updated_at":"2026-05-25T13:38:13.854086Z"}}}